175P/Hergenrother (2000)

Japanese version
Home page
Updated on February 25, 2006

---------------------------------------------------------------------

* Profile

Designation 175P/2000 C1
Discovery Date February 4, 2000
Magnitude 17.1 mag
Discoverer Carl Hergenrother (Lunar and Planetary Laboratory)

* Pictures

* Orbital Elements

   The following improved orbital elements by Kenji Muraoka, are
  from 163 observations  2000 Jan. 4  to  May  8, perturbations
  by 9 Planets, Moon and 5 minor planets were taken into account.
   The mean residual is +/- 0.73 arc seconds.

      Epoch  =  2000 Apr.  6.0  TT       JDT = 2451640.5
          T  =  2000 Mar. 19.86858       +/- 0.01097 (m.e.) TT
       Peri. =   51.16722                +/- 0.01188
       Node  =  127.04430                +/- 0.00986   (2000.0)
       Incl. =    6.10536                +/- 0.00166
          q  =    2.0955452              +/- 0.0000479 AU
          e  =    0.4064290              +/- 0.0000068
          a  =    3.5304035              +/- 0.0000699 AU
          n  =    0.14858246             +/- 0.00000441
          P  =    6.633                  +/- 0.0001969  years
                                        (+/- 0.07 day)

* Finding Charts

* Magnitudes Graph

        m1 = 13.0 + 5 log d + 10.0 log r

---------------------------------------------------------------------

The orbital elements are calculated by Kenji Muraoka.
The charts are made with StellaNavigator Ver.2.0 for Windows (AstroArts / ASCII).
The magnitudes graphs are made with Comet for Windows.

---------------------------------------------------------------------

Copyright(C) Seiichi Yoshida (comet@aerith.net). All rights reserved.